Weather History for KNIP - October, 2011

Change the Weather History Date:

Friday, October 28, 2011

  Actual Average Record
Temperature  
Mean Temperature 55 °F -  
Max Temperature 78 °F 76 °F 91 °F (2010)
Min Temperature 32 °F 60 °F 32 °F (2011)
Degree Days  
Heating Degree Days 10    
Growing Degree Days 5 (Base 50)    
Moisture  
Dew Point 61 °F    
Average Humidity 72    
Maximum Humidity 100    
Minimum Humidity 52    
Precipitation  
Precipitation 0.00 in - - ()
Sea Level Pressure  
Sea Level Pressure 29.92 in    
Wind  
Wind Speed 4 mph (South)    
Max Wind Speed 8 mph    
Max Gust Speed -    
Visibility 10 miles    
Events      
Averages and records for this station are not official NWS values.
T = Trace of Precipitation, MM = Missing Value Source: NWS Daily Summary

Daily Weather History Graph

Daily Weather History Graph

Search for Another Location

Airport or City:

Trip Planner

Search our weather history database for the weather conditions in past years. The results will help you decide how hot, cold, wet, or windy it might be!

Date:

Astronomy

Oct. 28, 2011 Rise Set
Actual Time 7:37 AM EDT 6:42 PM EDT
Civil Twilight 7:13 AM EDT 7:07 PM EDT
Nautical Twilight 6:44 AM EDT 7:35 PM EDT
Astronomical Twilight 6:16 AM EDT 8:03 PM EDT
Moon 9:39 AM EDT (10/28) 8:17 PM EDT (10/28)
Length of Visible Light 11h 54m
Length of Day
11h 05m
Waxing Crescent, 5% of the Moon is Illuminated
Oct 28
Waxing Crescent
Nov 2
First Quarter
Nov 10
Full
Nov 18
Last Quarter
Nov 25
New

Hourly Weather History & Observations

Time (EDT) Temp. Dew Point Humidity Pressure Visibility Wind Dir Wind Speed Gust Speed Precip Events Conditions
12:53 AM 72.0 °F 61.0 °F 68% 29.92 in 10.0 mi WSW 5.8 mph - N/A   Mostly Cloudy
1:53 AM 71.1 °F 61.0 °F 70% 29.93 in 10.0 mi SSW 5.8 mph - N/A   Mostly Cloudy
2:53 AM 68.0 °F 61.0 °F 78% 29.92 in 10.0 mi WSW 3.5 mph - N/A   Mostly Cloudy
3:53 AM 68.0 °F 61.0 °F 78% 29.92 in 10.0 mi SSW 4.6 mph - N/A   Mostly Cloudy
4:53 AM 66.9 °F 61.0 °F 81% 29.92 in 10.0 mi WSW 3.5 mph - N/A   Mostly Cloudy
5:53 AM 66.9 °F 61.0 °F 81% 29.93 in 10.0 mi West 3.5 mph - N/A   Overcast
6:28 AM 32.0 °F 32.0 °F 100% - - North - - N/A   Unknown
6:53 AM 66.9 °F 61.0 °F 81% 29.94 in 10.0 mi Calm Calm - N/A   Overcast
7:53 AM 66.9 °F 61.0 °F 81% 29.95 in 9.0 mi Calm Calm - 0.00 in   Overcast
8:53 AM 66.9 °F 61.0 °F 81% 29.96 in 10.0 mi Calm Calm - N/A   Overcast
9:53 AM 69.1 °F 62.1 °F 78% 29.98 in 9.0 mi SSW 3.5 mph - N/A   Mostly Cloudy
10:00 AM - - N/A% - - North - - N/A   Unknown
10:53 AM 71.1 °F 63.0 °F 75% 29.97 in 9.0 mi Calm Calm - 0.00 in   Mostly Cloudy
11:53 AM 72.0 °F 63.0 °F 73% 29.97 in 10.0 mi Calm Calm - N/A   Mostly Cloudy
12:53 PM 73.0 °F 63.0 °F 71% 29.94 in 10.0 mi North 4.6 mph - 0.00 in   Mostly Cloudy
1:53 PM 77.0 °F 57.9 °F 52% 29.93 in 10.0 mi NE 3.5 mph - N/A   Mostly Cloudy
2:53 PM 78.1 °F 59.0 °F 52% 29.91 in 10.0 mi Calm Calm - N/A   Mostly Cloudy
3:53 PM 78.1 °F 59.0 °F 52% 29.90 in 10.0 mi Calm Calm - N/A   Mostly Cloudy
4:53 PM 78.1 °F 59.0 °F 52% 29.89 in 10.0 mi South 3.5 mph - N/A   Overcast
5:53 PM 78.1 °F 60.1 °F 54% 29.89 in 10.0 mi ESE 3.5 mph - N/A   Overcast
6:53 PM 75.0 °F 64.9 °F 71% 29.90 in 10.0 mi ESE 4.6 mph - N/A   Overcast
7:53 PM 73.9 °F 66.9 °F 79% 29.90 in 10.0 mi SE 5.8 mph - N/A   Overcast
8:53 PM 73.0 °F 66.0 °F 79% 29.91 in 10.0 mi SE 6.9 mph - N/A   Overcast
9:53 PM 73.0 °F 64.9 °F 76% 29.90 in 10.0 mi ESE 3.5 mph - N/A   Overcast
10:53 PM 73.0 °F 63.0 °F 71% 29.91 in 10.0 mi South 8.1 mph - N/A   Overcast
11:53 PM 73.0 °F 63.0 °F 71% 29.89 in 10.0 mi SSE 5.8 mph - N/A   Overcast